User: anonymous   Login
Location: Castelbiague
(43.0361°N, 0.9246°E)
Time: 20:59:42
(UTC+00:00)
Language:

Meteor 2-10 - Orbit

View from above orbital plane
View from above orbital plane
View from above satellite
View from above satellite

Ground track
Ground track

The orbit data is extracted from the following two-line orbital elements,

1 14452U 83109A   21271.43218706  .00000066  00000-0  20820-4 0  9999
2 14452  81.1591 297.2553 0091068 162.2499 198.1899 14.26540600972037
Epoch (UTC): 28 September 2021 10:22:20
Eccentricity: 0.0091068
inclination: 81.1591°
perigee height: 738 km
apogee height: 869 km
right ascension of ascending node: 297.2553°
argument of perigee: 162.2499°
revolutions per day: 14.26540600
mean anomaly at epoch: 198.1899°
orbit number at epoch: 97203

The dashed part of the orbit path shows where the satellite is in the earth's shadow,  

DLR